[[{"header":{"parameterUnit":"m.s-1","parameterCategory":2,"la1":30.2991,"la2":30.254,"lo1":-89.0895,"lo2":-89.0444,"dy":0.0017,"dx":0.0017,"nx":28,"ny":28,"refTime":"2024-07-14T03:00:00:Z","depth":"0","parameterNumber":2,"parameterNumberName":"U-component_of_CURRENTS"},"data":[0,0,0,0,0,0,0,0,0,0,0,0,0,0,0,0,0,0,0,0,0,0,0,0,0,0,0,0,0,0,0,0,0,0,0,0,0,0,0,0,0,0,0,0,0,0,0,0,0,0,0,0,0,0,0,0,0,0,0.1432,0.1431,0,0.1381,0.138,0.138,0.1325,0.1324,0.1324,0.1323,0.1232,0.123,0.1228,0,0,0,0,0,0,0,0,0,0,0,0,0,0.142,0.1421,0.1432,0.1431,0.1431,0.1381,0.138,0.1379,0.1325,0.1324,0.1323,0.1323,0.1232,0.123,0.1228,0,0,0,0,0,0,0,0,0,0,0,0,0,0.1402,0.1422,0.1432,0.1399,0.1395,0.1381,0.138,0.1379,0.1325,0.1324,0.1323,0.1322,0.1233,0.1231,0.1228,0.1231,0,0,0.1219,0.1218,0,0,0,0,0,0,0,0,0.1403,0.1402,0.1404,0.1401,0.1397,0.1359,0.1343,0.1328,0.1325,0.135,0.1323,0.1322,0.1272,0.1266,0.1258,0.1226,0.1223,0.1219,0.1218,0.1216,0.1216,0,0,0,0,0,0,0,0.1405,0.1404,0.141,0.1404,0.1399,0.1365,0.1362,0.134,0.1316,0.1348,0.1344,0.1341,0.127,0.126,0.1255,0.1221,0.1219,0.1217,0.1215,0.1214,0.128,0.1283,0,0,0,0,0,0,0.1418,0.1406,0.1412,0.1409,0.1399,0.1367,0.1363,0.1371,0.1317,0.1308,0.1342,0.1339,0.1266,0.1258,0.1252,0.1327,0.1216,0.1214,0.1212,0.1276,0.1281,0.1284,0,0,0,0,0,0,0.1418,0.142,0.1414,0.1406,0.1403,0.1369,0.1378,0.1371,0.1367,0.1313,0.1303,0.1346,0.1265,0.1255,0.1268,0.132,0.1213,0.121,0.1272,0.1278,0.1282,0.1429,0,0,0,0,0,0,0.1419,0.1421,0.1434,0.1408,0.1404,0.1427,0.1379,0.1371,0.1367,0.1362,0.1313,0.1303,0.1263,0.1273,0.1265,0.1314,0.1208,0.1268,0.1275,0.1281,0.142,0.1439,0.1455,0,0,0,0,0,0.1418,0.1445,0.1435,0.1436,0.1424,0.1429,0.1425,0.1394,0.1368,0.1383,0.1362,0.1305,0.1308,0.1273,0.1263,0.1313,0.1265,0.1273,0.128,0.1412,0.1435,0.1454,0,0,0,0,0,0,0.1445,0.1441,0.143,0.1453,0.1451,0.142,0.1429,0.1406,0.14,0.1396,0.1339,0.133,0.1365,0.1324,0.1287,0.1356,0.1281,0.1287,0.1385,0.1405,0.1422,0.1434,0.1206,0,0,0,0,0,0.1459,0.1481,0.1468,0.1489,0.1491,0.1463,0.146,0.1444,0.1431,0.1426,0.1397,0.1381,0.1389,0.1384,0.1378,0.1404,0.1417,0.1435,0.1453,0.1467,0.1475,0.156,0.1586,0.1309,0.1309,0.1309,0,0,0.1471,0.1476,0.1485,0.1497,0.1489,0.1507,0.1459,0.1471,0.1492,0.1418,0.1446,0.1437,0.1413,0.1455,0.1467,0.1424,0.1562,0.1477,0.149,0.1488,0.1571,0.1598,0.1622,0.1314,0.1313,0.1312,0,0,0.1513,0.1518,0.1548,0.1552,0.1557,0.1549,0.1559,0.1547,0.1551,0.1575,0.1548,0.1581,0.156,0.1578,0.1577,0.1686,0.1655,0.168,0.1767,0.1852,0.1876,0.1896,0.1983,0.2009,0.1684,0.1684,0.1684,0,0.1526,0.1562,0.1557,0.1586,0.1594,0.1575,0.1605,0.1615,0.1612,0.1632,0.1603,0.1646,0.1626,0.17,0.1744,0.1726,0.1765,0.1687,0.1875,0.1896,0.1914,0.1997,0.2025,0.1692,0.1691,0.169,0.169,0,0.1583,0.161,0.1631,0.1663,0.1679,0.1704,0.1715,0.1745,0.1744,0.1747,0.1818,0.1817,0.184,0.1855,0.1826,0.1955,0.1941,0.1892,0.1821,0.1951,0.203,0.2057,0.1704,0.1701,0.1698,0.1696,0,0,0.1607,0.166,0.1665,0.1686,0.1719,0.1734,0.18,0.1847,0.1889,0.1914,0.198,0.2027,0.2025,0.2028,0.202,0.2093,0.2271,0.2053,0.2054,0.2137,0.2476,0.2538,0.2572,0.2257,0.2262,0.2265,0.2492,0,0.1648,0.171,0.1732,0.1789,0.1817,0.1836,0.1893,0.1938,0.1971,0.2035,0.2075,0.2124,0.2091,0.2114,0.2195,0.2237,0.2342,0.2215,0.2338,0.2342,0.238,0.2605,0.2672,0.2886,0.2517,0.2521,0.2524,0,0.1687,0.1727,0.1787,0.1847,0.1862,0.1898,0.1981,0.2031,0.2122,0.215,0.2224,0.2238,0.2357,0.2301,0.2484,0.2404,0.2467,0.2504,0.2512,0.2531,0.2454,0.269,0.2947,0.2957,0.2564,0.2561,0.2558,0,0.169,0.176,0.1809,0.1825,0.1896,0.1937,0.1982,0.2065,0.2112,0.2228,0.2273,0.2394,0.2457,0.2563,0.2638,0.2577,0.2838,0.2753,0.2882,0.2886,0.2948,0.295,0.3225,0.2921,0.2921,0.292,0.292,0,0.1713,0.1748,0.181,0.1832,0.189,0.1944,0.2018,0.2078,0.2178,0.2246,0.2328,0.2417,0.2526,0.2662,0.2723,0.2914,0.2919,0.2966,0.2977,0.3005,0.3009,0.3016,0.2895,0.2929,0.2927,0.2925,0.2924,0,0.1693,0.1739,0.1787,0.1865,0.1886,0.1923,0.2007,0.2065,0.2165,0.2266,0.2307,0.247,0.2669,0.2791,0.298,0.3033,0.3174,0.3242,0.3274,0.3287,0.3399,0.3279,0.3349,0.3334,0.345,0.3453,0.3456,0,0.1684,0.171,0.178,0.1803,0.1834,0.1894,0.1939,0.204,0.2109,0.2294,0.2355,0.2574,0.2737,0.3071,0.3251,0.3462,0.3322,0.3604,0.3504,0.3495,0.337,0.3153,0.3117,0.3658,0.3662,0.3665,0.3668,0,0.1658,0.1682,0.1718,0.1764,0.1807,0.1856,0.1938,0.1984,0.2122,0.2238,0.2428,0.2579,0.2948,0.3237,0.3525,0.3639,0.3533,0.3681,0.3682,0.3596,0.3367,0.3328,0.3398,0.3699,0.3696,0.3694,0.3692,0.3691,0.1623,0.1633,0.1681,0.172,0.1762,0.1818,0.1856,0.1969,0.2086,0.227,0.2435,0.269,0.3134,0.3584,0.372,0.4011,0.3763,0.3997,0.387,0.3667,0.3608,0.3755,0.4043,0.4042,0.4041,0.404,0.4039,0,0.1581,0.1604,0.1637,0.1688,0.1714,0.1758,0.1853,0.1906,0.2037,0.2267,0.2459,0.2938,0.3354,0.3723,0.4151,0.4194,0.4084,0.4149,0.3885,0.3855,0.4069,0.404,0.4329,0.4329,0.4329,0.4329,0.4329,0.4329,0.1563,0.1576,0.1599,0.1627,0.1659,0.1697,0.1741,0.1844,0.2007,0.2304,0.2581,0.2817,0.3314,0.394,0.4273,0.4268,0.4045,0.3958,0.3857,0.4042,0.4017,0.3994,0.3951,0.4216,0.4216,0.3675,0.3671,0.3667]},{"header":{"parameterUnit":"m.s-1","parameterCategory":2,"la1":30.2991,"la2":30.254,"lo1":-89.0895,"lo2":-89.0444,"dy":0.0017,"dx":0.0017,"nx":28,"ny":28,"refTime":"2024-07-14T03:00:00:Z","depth":"0","parameterNumber":3,"parameterNumberName":"V-component_of_CURRENTS"},"data":[0,0,0,0,0,0,0,0,0,0,0,0,0,0,0,0,0,0,0,0,0,0,0,0,0,0,0,0,0,0,0,0,0,0,0,0,0,0,0,0,0,0,0,0,0,0,0,0,0,0,0,0,0,0,0,0,0,0,-0.0451,-0.0452,0,-0.0548,-0.055,-0.0551,-0.063,-0.063,-0.0631,-0.0632,-0.075,-0.0752,-0.0754,0,0,0,0,0,0,0,0,0,0,0,0,0,-0.0361,-0.0362,-0.0451,-0.0452,-0.0453,-0.0548,-0.055,-0.0551,-0.0629,-0.063,-0.0631,-0.0632,-0.0749,-0.0752,-0.0755,0,0,0,0,0,0,0,0,0,0,0,0,0,-0.0424,-0.0362,-0.045,-0.0502,-0.0508,-0.0548,-0.055,-0.0551,-0.0629,-0.063,-0.0631,-0.0632,-0.0748,-0.0751,-0.0755,-0.0758,0,0,-0.0767,-0.0768,0,0,0,0,0,0,0,0,-0.0421,-0.0428,-0.0494,-0.0499,-0.0505,-0.0577,-0.0561,-0.0621,-0.0629,-0.0584,-0.0632,-0.0633,-0.0692,-0.07,-0.0718,-0.0763,-0.0768,-0.0767,-0.0769,-0.0771,-0.0772,0,0,0,0,0,0,0,-0.0416,-0.0424,-0.0491,-0.0495,-0.0502,-0.0531,-0.0541,-0.0573,-0.0633,-0.0588,-0.0594,-0.0603,-0.0696,-0.0714,-0.0721,-0.077,-0.0767,-0.077,-0.0772,-0.0774,-0.085,-0.085,0,0,0,0,0,0,-0.0399,-0.042,-0.0487,-0.0493,-0.0463,-0.0531,-0.0543,-0.0554,-0.0632,-0.0644,-0.0602,-0.0606,-0.0707,-0.0717,-0.0726,-0.0729,-0.0771,-0.0774,-0.0776,-0.0851,-0.085,-0.085,0,0,0,0,0,0,-0.0397,-0.0404,-0.0483,-0.0458,-0.047,-0.0531,-0.0543,-0.0555,-0.0577,-0.0642,-0.0655,-0.0612,-0.0708,-0.0721,-0.0757,-0.0734,-0.0776,-0.0779,-0.0851,-0.0851,-0.085,-0.0738,0,0,0,0,0,0,-0.0394,-0.0403,-0.0401,-0.0456,-0.047,-0.0501,-0.0543,-0.0556,-0.058,-0.0587,-0.0654,-0.0667,-0.071,-0.0751,-0.0761,-0.074,-0.0782,-0.0851,-0.0851,-0.085,-0.0742,-0.0734,-0.0727,0,0,0,0,0,-0.039,-0.0383,-0.04,-0.0408,-0.0467,-0.0501,-0.051,-0.0559,-0.0579,-0.0583,-0.0632,-0.0665,-0.0756,-0.0754,-0.0765,-0.0745,-0.0851,-0.0851,-0.085,-0.0745,-0.0735,-0.0727,0,0,0,0,0,0,-0.0342,-0.0392,-0.0412,-0.042,-0.0454,-0.0514,-0.0518,-0.0551,-0.0593,-0.06,-0.0662,-0.0677,-0.0701,-0.0742,-0.0739,-0.0769,-0.0809,-0.081,-0.0725,-0.0716,-0.0709,-0.0677,-0.0785,0,0,0,0,0,-0.0328,-0.0339,-0.0388,-0.0394,-0.0406,-0.0459,-0.0477,-0.0511,-0.0556,-0.0576,-0.062,-0.0669,-0.0707,-0.0726,-0.0769,-0.0781,-0.0807,-0.0778,-0.077,-0.0763,-0.0747,-0.0776,-0.0769,-0.0849,-0.0849,-0.0849,0,0,-0.0309,-0.0339,-0.0344,-0.0384,-0.0413,-0.042,-0.0473,-0.0496,-0.0499,-0.058,-0.0594,-0.0645,-0.0707,-0.0724,-0.0738,-0.0755,-0.0752,-0.0762,-0.0756,-0.0744,-0.0775,-0.0767,-0.076,-0.0848,-0.0848,-0.0848,0,0,-0.0274,-0.0302,-0.0296,-0.0318,-0.0358,-0.0389,-0.0391,-0.0443,-0.0463,-0.0487,-0.0544,-0.0576,-0.0636,-0.0668,-0.0694,-0.0669,-0.0714,-0.069,-0.062,-0.0648,-0.0641,-0.0635,-0.0639,-0.0635,-0.0682,-0.0681,-0.0681,0,-0.0248,-0.0252,-0.0298,-0.0297,-0.0304,-0.0367,-0.0356,-0.0383,-0.044,-0.0444,-0.0478,-0.0553,-0.0604,-0.0617,-0.0612,-0.0647,-0.0669,-0.0644,-0.0634,-0.063,-0.0626,-0.0632,-0.0628,-0.0676,-0.0677,-0.0677,-0.0678,0,-0.0211,-0.0212,-0.0207,-0.0226,-0.0238,-0.0242,-0.028,-0.0291,-0.0323,-0.0352,-0.0375,-0.0445,-0.0488,-0.0509,-0.0554,-0.0548,-0.0574,-0.0621,-0.0648,-0.061,-0.062,-0.0618,-0.0668,-0.067,-0.0672,-0.0673,0,0,-0.0157,-0.0177,-0.0173,-0.0168,-0.0201,-0.0207,-0.02,-0.0213,-0.0202,-0.0254,-0.0242,-0.0306,-0.0346,-0.0379,-0.0437,-0.0459,-0.0447,-0.052,-0.0524,-0.0506,-0.0491,-0.0503,-0.0503,-0.0497,-0.0496,-0.0496,-0.0502,0,-0.0112,-0.009,-0.0112,-0.0083,-0.0074,-0.0113,-0.0096,-0.0115,-0.0143,-0.0147,-0.0206,-0.0229,-0.0296,-0.0317,-0.0345,-0.0429,-0.0441,-0.0439,-0.0547,-0.0549,-0.055,-0.0501,-0.0453,-0.0454,-0.0501,-0.05,-0.05,0,-0.0066,-0.006,-0.0022,-0.0012,-0.0007,0.0003,0.0016,0.002,0.0,-0.0023,-0.0053,-0.0109,-0.0141,-0.0215,-0.0302,-0.0301,-0.0378,-0.0441,-0.0444,-0.0492,-0.0558,-0.0507,-0.045,-0.0564,-0.0498,-0.0498,-0.0499,0,-0.0011,0.0006,0.004,0.0042,0.0045,0.0064,0.0068,0.006,0.0075,0.0052,0.0053,-0.0002,-0.0031,-0.0128,-0.0252,-0.0281,-0.0348,-0.0412,-0.0486,-0.0488,-0.0484,-0.0486,-0.0535,-0.0464,-0.0464,-0.0464,-0.0464,0,0.004,0.0067,0.0068,0.0085,0.0137,0.0121,0.0167,0.0162,0.0165,0.0191,0.012,0.0127,-0.0015,-0.0075,-0.0201,-0.0319,-0.0308,-0.0451,-0.0486,-0.0443,-0.0442,-0.0575,-0.0645,-0.0465,-0.0465,-0.0465,-0.0464,0,0.0092,0.0092,0.0129,0.0147,0.016,0.0195,0.0225,0.0256,0.0249,0.028,0.0277,0.0231,0.0156,0.0023,-0.0124,-0.0246,-0.0439,-0.0419,-0.0343,-0.037,-0.0561,-0.0626,-0.0759,-0.0842,-0.0496,-0.0496,-0.0496,0,0.0117,0.0142,0.0177,0.0205,0.0215,0.0257,0.0291,0.0295,0.0322,0.0344,0.0367,0.0323,0.0302,0.0109,-0.0099,-0.0284,-0.0433,-0.0384,-0.044,-0.054,-0.064,-0.0736,-0.0803,-0.0383,-0.0382,-0.0382,-0.0381,0,0.0164,0.0178,0.0207,0.0263,0.0301,0.0351,0.0392,0.0427,0.044,0.0475,0.0515,0.0513,0.0347,0.0213,-0.0035,-0.0194,-0.047,-0.038,-0.0506,-0.056,-0.0646,-0.0752,-0.0401,-0.0376,-0.0376,-0.0377,-0.0377,-0.0377,0.0194,0.0227,0.0264,0.032,0.0371,0.0437,0.0487,0.0531,0.0598,0.0673,0.0655,0.0713,0.0521,0.02,-0.0063,-0.0417,-0.0472,-0.0516,-0.0584,-0.0672,-0.0759,-0.0386,-0.0399,-0.0399,-0.04,-0.04,-0.0401,0,0.0219,0.0259,0.0317,0.0383,0.0451,0.0469,0.0552,0.0612,0.0701,0.08,0.0855,0.0899,0.0617,0.0288,-0.015,-0.0499,-0.0712,-0.0695,-0.0805,-0.0867,-0.0533,-0.0534,-0.055,-0.055,-0.055,-0.055,-0.055,-0.055,0.0229,0.0285,0.032,0.0432,0.0491,0.0589,0.0644,0.0742,0.0837,0.1031,0.1165,0.1245,0.1156,0.027,-0.0408,-0.0631,-0.0934,-0.102,-0.1184,-0.0922,-0.091,-0.09,-0.0918,-0.1014,-0.1015,-0.1491,-0.1495,-0.1499]}],[{"header":{"parameterUnit":"m.s-1","parameterCategory":2,"la1":30.2991,"la2":30.254,"lo1":-89.0895,"lo2":-89.0444,"dy":0.0017,"dx":0.0017,"nx":28,"ny":28,"refTime":"2024-07-14T03:00:00:Z","depth":"2","parameterNumber":2,"parameterNumberName":"U-component_of_CURRENTS"},"data":[0,0,0,0,0,0,0,0,0,0,0,0,0,0,0,0,0,0,0,0,0,0,0,0,0,0,0,0,0,0,0,0,0,0,0,0,0,0,0,0,0,0,0,0,0,0,0,0,0,0,0,0,0,0,0,0,0,0,-0.0058,-0.0057,0,0.0075,0.0077,0.0078,0.0104,0.0103,0.0102,0.0101,0.0229,0.0233,0.0238,0,0,0,0,0,0,0,0,0,0,0,0,0,-0.0266,-0.0262,-0.0059,-0.0057,-0.0055,0.0075,0.0077,0.0079,0.0104,0.0103,0.0102,0.0101,0.0228,0.0233,0.0238,0,0,0,0,0,0,0,0,0,0,0,0,0,-0.0159,-0.0261,-0.0059,-0.0026,-0.0022,0.0075,0.0077,0.0079,0.0105,0.0103,0.0102,0.01,0.0226,0.0232,0.0239,0.0309,0,0,0.0259,0.0261,0,0,0,0,0,0,0,0,-0.0165,-0.0151,-0.0033,-0.0028,-0.0023,0.0072,0.0051,0.0156,0.0105,0.0056,0.0101,0.0099,0.0178,0.0188,0.0216,0.0315,0.032,0.0259,0.0263,0.0266,0.0268,0,0,0,0,0,0,0,-0.0172,-0.0157,-0.0006,-0.0031,-0.0025,-0.0009,0.0004,0.0071,0.0123,0.006,0.0062,0.0079,0.018,0.0209,0.0219,0.0322,0.0259,0.0265,0.0269,0.0271,0.0541,0.0544,0,0,0,0,0,0,-0.0186,-0.0163,-0.0011,-0.0002,-0.0099,-0.0004,0.0011,0.0042,0.0122,0.0133,0.008,0.008,0.0199,0.0211,0.0223,0.0342,0.0266,0.0272,0.0276,0.0538,0.0542,0.0545,0,0,0,0,0,0,-0.0191,-0.0173,-0.0016,-0.0081,-0.006,0.0001,0.0037,0.0046,0.008,0.0138,0.0148,0.0104,0.0198,0.0214,0.0303,0.0346,0.0275,0.0281,0.0534,0.0539,0.0543,0.056,0,0,0,0,0,0,-0.0197,-0.0176,-0.0151,-0.0081,-0.0056,0.0051,0.0038,0.005,0.0092,0.0093,0.0162,0.0172,0.0198,0.0293,0.0309,0.0353,0.0286,0.053,0.0536,0.0542,0.0555,0.0565,0.0573,0,0,0,0,0,-0.0205,-0.0162,-0.015,-0.0131,-0.0025,0.0052,0.0067,0.0103,0.0095,0.0124,0.0174,0.017,0.0343,0.0301,0.032,0.0366,0.0527,0.0534,0.0541,0.0551,0.0563,0.0573,0,0,0,0,0,0,-0.0234,-0.0153,-0.0139,-0.0072,-0.0013,0.0057,0.0093,0.0111,0.0175,0.0175,0.0214,0.023,0.0325,0.0354,0.0306,0.0467,0.0435,0.0446,0.0436,0.0448,0.0456,0.0448,0.0291,0,0,0,0,0,-0.023,-0.0177,-0.0106,-0.0051,-0.0021,0.0035,0.0072,0.0097,0.0158,0.0183,0.0233,0.0297,0.0374,0.0412,0.0482,0.0569,0.0595,0.0615,0.0624,0.063,0.064,0.0717,0.0732,0.0569,0.0569,0.0569,0,0,-0.0225,-0.0174,-0.0144,-0.0054,-0.0006,0.0056,0.0054,0.0117,0.0169,0.0191,0.028,0.0332,0.0407,0.0505,0.055,0.0529,0.0694,0.064,0.0645,0.0651,0.0726,0.0741,0.0755,0.0574,0.0573,0.0572,0,0,-0.0192,-0.0145,-0.0093,-0.004,0.0036,0.0077,0.0095,0.0172,0.0206,0.0299,0.0331,0.041,0.052,0.0583,0.0628,0.0734,0.074,0.0756,0.0791,0.0865,0.0878,0.089,0.0943,0.0959,0.0757,0.0757,0.0757,0,-0.0194,-0.0112,-0.0066,-0.0003,0.0045,0.0086,0.0148,0.0202,0.0297,0.0339,0.033,0.0511,0.0562,0.0689,0.0724,0.0752,0.0784,0.0734,0.0872,0.0885,0.0896,0.0948,0.0966,0.0759,0.0758,0.0758,0.0758,0,-0.0123,-0.0057,-0.0019,0.0072,0.0128,0.0192,0.0262,0.032,0.0357,0.0409,0.053,0.0606,0.0709,0.0742,0.0766,0.0887,0.0879,0.087,0.0831,0.0913,0.0963,0.0981,0.0761,0.076,0.076,0.076,0,0,-0.0123,0.0003,0.002,0.0069,0.0172,0.0226,0.0315,0.0414,0.0475,0.0554,0.0644,0.0771,0.0793,0.0848,0.0889,0.095,0.1057,0.0943,0.0946,0.097,0.121,0.1171,0.1186,0.1063,0.1067,0.1069,0.121,0,-0.0079,0.0035,0.0093,0.0202,0.0264,0.0329,0.0409,0.0496,0.0567,0.0662,0.0738,0.0843,0.0839,0.0892,0.0955,0.1039,0.1106,0.1019,0.115,0.1154,0.1088,0.1207,0.0997,0.1103,0.1228,0.1231,0.1233,0,-0.0022,0.0047,0.0154,0.0267,0.03,0.0369,0.0494,0.0574,0.0701,0.0755,0.0853,0.0907,0.1032,0.1003,0.1172,0.1113,0.1171,0.1217,0.1223,0.1193,0.1149,0.1046,0.1131,0.1263,0.1261,0.1258,0.1256,0,-0.0038,0.0094,0.0175,0.0218,0.0349,0.0408,0.0482,0.0606,0.0683,0.0823,0.0887,0.1013,0.1099,0.1185,0.1273,0.1236,0.1436,0.1398,0.1418,0.1415,0.1268,0.1246,0.1524,0.1524,0.1524,0.1524,0.1523,0,-0.0008,0.0064,0.0175,0.0225,0.032,0.0409,0.0524,0.0609,0.0741,0.0842,0.0933,0.1031,0.115,0.1263,0.1317,0.1429,0.148,0.1457,0.1466,0.127,0.1248,0.1404,0.1388,0.1529,0.1528,0.1527,0.1526,0,-0.0022,0.0053,0.015,0.0277,0.0321,0.039,0.0541,0.0621,0.0743,0.0879,0.0927,0.1084,0.1246,0.1349,0.1511,0.15,0.1599,0.1622,0.1376,0.1353,0.1514,0.1498,0.167,0.167,0.167,0.167,0.1671,0,-0.0014,0.0035,0.0169,0.0222,0.0287,0.0398,0.0476,0.0612,0.0699,0.0906,0.0967,0.1163,0.1277,0.1485,0.1513,0.1612,0.1675,0.1479,0.1379,0.1546,0.1537,0.1521,0.1505,0.1192,0.1188,0.1185,0.1182,0,-0.0006,0.0041,0.0114,0.0219,0.0305,0.04,0.0521,0.0584,0.0748,0.0867,0.1042,0.1147,0.1314,0.1337,0.1443,0.145,0.1439,0.1419,0.1692,0.1182,0.1106,0.1093,0.1091,0.1154,0.1157,0.1159,0.1161,0.1162,-0.0002,0.0037,0.0131,0.023,0.0312,0.0404,0.0482,0.0597,0.073,0.0875,0.0989,0.1085,0.1096,0.117,0.1222,0.1264,0.1335,0.1254,0.126,0.1269,0.1184,0.1112,0.1145,0.1147,0.115,0.1152,0.1153,0,0.0016,0.007,0.0145,0.0257,0.0329,0.0394,0.0517,0.0567,0.0701,0.0784,0.0898,0.0832,0.0838,0.0948,0.0949,0.0973,0.0918,0.0972,0.0872,0.0896,0.0918,0.0813,0.0677,0.0677,0.0678,0.0678,0,0,0.0035,0.0105,0.0144,0.0258,0.0336,0.0436,0.0507,0.0561,0.0614,0.0672,0.0701,0.0666,0.0777,0.0666,0.068,0.0712,0.0796,0.0675,0.1025,0.092,0.0943,0.1023,0.088,0,0,0,0,0]},{"header":{"parameterUnit":"m.s-1","parameterCategory":2,"la1":30.2991,"la2":30.254,"lo1":-89.0895,"lo2":-89.0444,"dy":0.0017,"dx":0.0017,"nx":28,"ny":28,"refTime":"2024-07-14T03:00:00:Z","depth":"2","parameterNumber":3,"parameterNumberName":"V-component_of_CURRENTS"},"data":[0,0,0,0,0,0,0,0,0,0,0,0,0,0,0,0,0,0,0,0,0,0,0,0,0,0,0,0,0,0,0,0,0,0,0,0,0,0,0,0,0,0,0,0,0,0,0,0,0,0,0,0,0,0,0,0,0,0,0.0097,0.0096,0,0.0078,0.0078,0.0078,0.0056,0.0056,0.0055,0.0055,0.0026,0.0026,0.0025,0,0,0,0,0,0,0,0,0,0,0,0,0,0.0131,0.0131,0.0097,0.0096,0.0096,0.0078,0.0078,0.0078,0.0056,0.0056,0.0055,0.0055,0.0026,0.0026,0.0025,0,0,0,0,0,0,0,0,0,0,0,0,0,0.0116,0.0131,0.0097,0.0082,0.0081,0.0079,0.0078,0.0078,0.0056,0.0056,0.0055,0.0055,0.0026,0.0026,0.0025,0.0034,0,0,0.0024,0.0023,0,0,0,0,0,0,0,0,0.0117,0.0115,0.0085,0.0083,0.0082,0.0068,0.008,0.0063,0.0057,0.0067,0.0055,0.0054,0.0039,0.0037,0.0037,0.0033,0.0032,0.0023,0.0023,0.0023,0.0023,0,0,0,0,0,0,0,0.0118,0.0115,0.009,0.0084,0.0083,0.0083,0.008,0.0077,0.0057,0.0066,0.0064,0.0061,0.0038,0.0037,0.0036,0.0031,0.0023,0.0023,0.0023,0.0022,-0.0014,-0.0015,0,0,0,0,0,0,0.0118,0.0116,0.0091,0.009,0.0097,0.0083,0.008,0.0074,0.0057,0.0054,0.0061,0.006,0.0039,0.0037,0.0035,0.0008,0.0023,0.0022,0.0022,-0.0013,-0.0014,-0.0015,0,0,0,0,0,0,0.0119,0.0116,0.0092,0.0102,0.0099,0.0083,0.0077,0.0074,0.0058,0.0054,0.005,0.0047,0.0038,0.0036,0.0013,0.0008,0.0022,0.0022,-0.0013,-0.0014,-0.0014,-0.0023,0,0,0,0,0,0,0.012,0.0116,0.0111,0.0102,0.0098,0.0086,0.0077,0.0074,0.0058,0.0055,0.0041,0.0038,0.0037,0.0014,0.0012,0.0007,0.0021,-0.0012,-0.0013,-0.0014,-0.0022,-0.0024,-0.0026,0,0,0,0,0,0.0121,0.0119,0.0111,0.0108,0.0092,0.0086,0.0084,0.0071,0.0057,0.0054,0.0034,0.0038,0.0005,0.0012,0.0011,0.0006,-0.0011,-0.0013,-0.0014,-0.0021,-0.0024,-0.0026,0,0,0,0,0,0,0.0133,0.0116,0.0107,0.01,0.009,0.0082,0.0076,0.0064,0.0046,0.0037,0.0029,0.0025,0.0003,0.0003,0.0011,-0.0009,-0.0002,-0.0003,-0.0006,-0.0009,-0.0011,-0.0001,0.0021,0,0,0,0,0,0.0133,0.0122,0.0111,0.0103,0.0097,0.0083,0.0076,0.0067,0.0051,0.0042,0.0028,0.0013,-0.0,-0.0007,-0.0017,-0.0027,-0.0033,-0.0031,-0.0033,-0.0035,-0.0029,-0.0056,-0.0059,-0.0019,-0.0019,-0.0019,0,0,0.0134,0.0124,0.0117,0.0104,0.0094,0.0092,0.0077,0.0064,0.006,0.0042,0.0024,0.0003,-0.0006,-0.0021,-0.003,-0.0023,-0.005,-0.0037,-0.0038,-0.0031,-0.0058,-0.0061,-0.0065,-0.002,-0.002,-0.002,0,0,0.0139,0.0122,0.0118,0.0112,0.0096,0.009,0.0082,0.0065,0.0052,0.0033,0.0016,-0.0011,-0.0027,-0.0036,-0.0042,-0.006,-0.0063,-0.0066,-0.0063,-0.009,-0.0093,-0.0096,-0.0109,-0.0113,-0.0063,-0.0063,-0.0063,0,0.0141,0.0134,0.0116,0.0115,0.0111,0.0087,0.0088,0.0077,0.0052,0.0042,0.0026,-0.0016,-0.003,-0.0046,-0.0057,-0.0063,-0.0077,-0.0052,-0.0092,-0.0095,-0.0098,-0.0111,-0.0115,-0.0064,-0.0063,-0.0063,-0.0063,0,0.0145,0.0141,0.0137,0.0127,0.0122,0.0116,0.0102,0.0088,0.0064,0.005,0.0017,-0.0013,-0.0036,-0.0049,-0.0059,-0.0086,-0.0089,-0.0095,-0.0084,-0.0103,-0.0115,-0.0119,-0.0064,-0.0064,-0.0064,-0.0064,0,0,0.0143,0.0141,0.0138,0.0143,0.0127,0.0127,0.0116,0.0104,0.01,0.0058,0.0046,0.0002,-0.0026,-0.0035,-0.0059,-0.0084,-0.0124,-0.01,-0.0101,-0.0109,-0.0178,-0.0149,-0.0151,-0.0142,-0.0143,-0.0144,-0.0179,0,0.0149,0.0158,0.0151,0.0159,0.0164,0.0147,0.0146,0.013,0.0109,0.0092,0.0045,0.0021,-0.0015,-0.0034,-0.0069,-0.0108,-0.0136,-0.0113,-0.0162,-0.0163,-0.0132,-0.0156,-0.0207,-0.024,-0.0183,-0.0184,-0.0184,0,0.0152,0.016,0.017,0.0184,0.0183,0.0183,0.0177,0.0174,0.0146,0.0128,0.0087,0.0052,0.0001,-0.0027,-0.0107,-0.0094,-0.0138,-0.0169,-0.0172,-0.0142,-0.0142,-0.0213,-0.025,-0.0192,-0.0191,-0.019,-0.019,0,0.0161,0.0172,0.0182,0.0184,0.0193,0.0192,0.0191,0.0177,0.0185,0.0144,0.0142,0.0072,0.0043,-0.0032,-0.0104,-0.0114,-0.0182,-0.02,-0.0213,-0.0211,-0.026,-0.0261,-0.0255,-0.0255,-0.0255,-0.0255,-0.0255,0,0.017,0.0179,0.0187,0.0192,0.0214,0.0207,0.0222,0.0213,0.0208,0.0226,0.0155,0.0162,0.0038,-0.0013,-0.0091,-0.0159,-0.0175,-0.0212,-0.022,-0.0264,-0.0264,-0.0224,-0.022,-0.0256,-0.0256,-0.0256,-0.0256,0,0.0183,0.0181,0.0204,0.0215,0.0219,0.0233,0.0256,0.0278,0.0256,0.0277,0.0264,0.0221,0.0153,0.0044,-0.0063,-0.0125,-0.0201,-0.0218,-0.0252,-0.0262,-0.0217,-0.0213,-0.0246,-0.0245,-0.0245,-0.0244,-0.0244,0,0.0198,0.0205,0.0226,0.0249,0.0254,0.0275,0.0302,0.0299,0.0333,0.033,0.0357,0.0293,0.0287,0.0144,-0.0009,-0.0142,-0.0165,-0.0262,-0.0287,-0.0213,-0.0218,-0.0215,-0.0212,-0.0365,-0.0366,-0.0366,-0.0367,0,0.024,0.0236,0.0261,0.0303,0.0333,0.0378,0.0414,0.0447,0.0453,0.0479,0.0525,0.0516,0.0359,0.0193,-0.0004,-0.0095,-0.025,-0.0272,-0.021,-0.034,-0.0323,-0.0328,-0.0322,-0.0371,-0.0371,-0.037,-0.037,-0.037,0.0286,0.0311,0.0341,0.0383,0.0423,0.0492,0.0553,0.0602,0.0673,0.0703,0.0674,0.0599,0.0356,0.0074,-0.0066,-0.024,-0.0215,-0.032,-0.032,-0.032,-0.0308,-0.0289,-0.0328,-0.0328,-0.0327,-0.0327,-0.0326,0,0.0369,0.0386,0.0428,0.0496,0.0562,0.0562,0.065,0.0718,0.0831,0.0755,0.0788,0.046,0.0286,0.0025,-0.0235,-0.0342,-0.0366,-0.0394,-0.0439,-0.0435,-0.043,-0.0426,-0.0477,-0.0477,-0.0478,-0.0478,0,0,0.0422,0.0474,0.0485,0.061,0.0663,0.0784,0.0847,0.0928,0.0899,0.079,0.0634,0.055,0.0213,-0.0027,-0.0204,-0.0345,-0.0344,-0.0359,-0.0233,-0.0261,-0.0255,-0.0393,-0.038,0,0,0,0,0]}],[{"header":{"parameterUnit":"m.s-1","parameterCategory":2,"la1":30.2991,"la2":30.254,"lo1":-89.0895,"lo2":-89.0444,"dy":0.0017,"dx":0.0017,"nx":28,"ny":28,"refTime":"2024-07-14T03:00:00:Z","depth":"4","parameterNumber":2,"parameterNumberName":"U-component_of_CURRENTS"},"data":[0,0,0,0,0,0,0,0,0,0,0,0,0,0,0,0,0,0,0,0,0,0,0,0,0,0,0,0,0,0,0,0,0,0,0,0,0,0,0,0,0,0,0,0,0,0,0,0,0,0,0,0,0,0,0,0,0,0,0.0007,0.0007,0,-0.0004,-0.0004,-0.0004,-0.0007,-0.0007,-0.0007,-0.0007,-0.0009,-0.0009,-0.0009,0,0,0,0,0,0,0,0,0,0,0,0,0,0.0035,0.0034,0.0007,0.0007,0.0007,-0.0004,-0.0004,-0.0004,-0.0007,-0.0007,-0.0007,-0.0006,-0.0009,-0.0009,-0.0009,0,0,0,0,0,0,0,0,0,0,0,0,0,0.0023,0.0034,0.0007,0.0004,0.0004,-0.0004,-0.0004,-0.0004,-0.0007,-0.0007,-0.0007,-0.0006,-0.0008,-0.0009,-0.0009,-0.0011,0,0,-0.0009,-0.0009,0,0,0,0,0,0,0,0,0.0024,0.0022,0.0005,0.0005,0.0004,-0.0004,0.0005,-0.0006,-0.0007,-0.0002,-0.0007,-0.0006,-0.0006,-0.0007,-0.0009,-0.0011,-0.0011,-0.0009,-0.0009,-0.0009,-0.0009,0,0,0,0,0,0,0,0.0025,0.0023,0.0003,0.0005,0.0004,0.0006,0.0005,0.0003,-0.0004,-0.0003,-0.0003,-0.0005,-0.0006,-0.0009,-0.0009,-0.0011,-0.0009,-0.0009,-0.0009,-0.001,-0.0029,-0.003,0,0,0,0,0,0,0.0025,0.0023,0.0004,0.0003,0.0014,0.0006,0.0004,-0.0001,-0.0005,-0.0005,-0.0005,-0.0005,-0.0008,-0.0009,-0.0009,-0.0023,-0.0009,-0.001,-0.001,-0.0029,-0.0029,-0.003,0,0,0,0,0,0,0.0026,0.0023,0.0004,0.0013,0.0011,0.0005,-0.0001,-0.0001,-0.0002,-0.0006,-0.0006,-0.0004,-0.0008,-0.0009,-0.0012,-0.0023,-0.001,-0.001,-0.0028,-0.0029,-0.0029,-0.0044,0,0,0,0,0,0,0.0026,0.0023,0.0023,0.0013,0.001,0.0004,-0.0001,-0.0002,-0.0003,-0.0003,-0.0005,-0.0006,-0.0008,-0.0012,-0.0013,-0.0023,-0.001,-0.0028,-0.0028,-0.0029,-0.0043,-0.0045,-0.0047,0,0,0,0,0,0.0027,0.0027,0.0023,0.0021,0.0009,0.0005,0.0004,0.0,-0.0003,-0.0,-0.0007,-0.0005,-0.0018,-0.0013,-0.0013,-0.0023,-0.0027,-0.0028,-0.0029,-0.0042,-0.0045,-0.0047,0,0,0,0,0,0,0.0037,0.0026,0.0022,0.0018,0.0014,0.0004,0.0006,0.0001,-0.0002,-0.0002,-0.0008,-0.0009,-0.0017,-0.0017,-0.0011,-0.0032,-0.0023,-0.0024,-0.0033,-0.0035,-0.0037,-0.0024,-0.001,0,0,0,0,0,0.0039,0.0038,0.0027,0.0025,0.0022,0.0014,0.0012,0.001,0.0003,0.0002,-0.0002,-0.001,-0.0022,-0.0025,-0.003,-0.0038,-0.0021,-0.0046,-0.0048,-0.005,-0.004,-0.0048,-0.005,-0.0033,-0.0033,-0.0033,0,0,0.0042,0.0037,0.0035,0.0027,0.0022,0.002,0.0013,0.0012,0.0012,0.0002,0.0001,-0.0013,-0.0025,-0.0037,-0.0041,-0.0038,-0.0039,-0.0051,-0.0053,-0.0041,-0.0049,-0.0051,-0.0052,-0.0034,-0.0033,-0.0033,0,0,0.0048,0.0042,0.0043,0.004,0.0035,0.0029,0.003,0.0021,0.002,0.0014,0.0001,-0.0014,-0.0026,-0.004,-0.0049,-0.0062,-0.0048,-0.0072,-0.0072,-0.0081,-0.0082,-0.0083,-0.0033,-0.0029,-0.0075,-0.0075,-0.0075,0,0.0052,0.0051,0.0044,0.0044,0.0042,0.0033,0.0034,0.0031,0.0023,0.0023,0.0016,-0.001,-0.0025,-0.0043,-0.006,-0.0065,-0.0052,-0.0064,-0.0083,-0.0084,-0.0085,-0.0033,-0.0029,-0.0076,-0.0075,-0.0075,-0.0075,0,0.006,0.0059,0.0059,0.0056,0.0053,0.0054,0.0045,0.0046,0.004,0.0035,0.0023,-0.0002,-0.0016,-0.0035,-0.0057,-0.0077,-0.0058,-0.0084,-0.0076,-0.0087,-0.0031,-0.0027,-0.0077,-0.0076,-0.0076,-0.0076,0,0,0.0062,0.0065,0.0064,0.0068,0.006,0.006,0.0059,0.0058,0.0065,0.0049,0.0054,0.0009,-0.0004,-0.0016,-0.0045,-0.0065,-0.0063,-0.0086,-0.0086,-0.003,-0.0043,0.001,0.0021,-0.0106,-0.0106,-0.0106,0.001,0,0.0069,0.0079,0.0074,0.0081,0.0084,0.0076,0.0078,0.0077,0.0073,0.0079,0.0054,0.0043,0.0004,-0.0013,-0.0039,-0.0066,-0.0057,-0.0089,-0.0043,-0.004,0.001,0.0025,-0.0107,0.0013,0.0015,0.0015,0.0016,0,0.0074,0.0082,0.0092,0.01,0.01,0.0101,0.0107,0.0108,0.011,0.0107,0.0093,0.0077,0.005,0.0014,-0.0005,-0.0029,-0.0031,-0.0042,-0.0039,0.0019,0.002,0.0019,0.0024,0.0024,0.0023,0.0023,0.0022,0,0.0083,0.0092,0.0105,0.0106,0.0111,0.0114,0.0116,0.0117,0.0125,0.0124,0.0132,0.0106,0.01,0.007,0.0051,0.0012,0.0054,0.0004,0.0073,0.008,0.0003,0.0002,0.0014,0.0014,0.0014,0.0013,0.0013,0,0.0089,0.0096,0.0113,0.0117,0.0134,0.0128,0.0143,0.0144,0.0151,0.0165,0.0144,0.0154,0.0103,0.0119,0.0088,0.0118,0.0095,0.0096,0.0106,-0.0001,-0.0003,0.0009,0.0007,0.0018,0.0017,0.0016,0.0015,0,0.0085,0.0097,0.0112,0.0128,0.0137,0.0145,0.0159,0.0171,0.0175,0.0195,0.0194,0.0198,0.0212,0.0211,0.0195,0.0188,0.0195,0.0219,0.0171,0.0174,0.0223,0.0218,0.03,0.0302,0.0305,0.0307,0.0308,0,0.0083,0.0091,0.0122,0.0137,0.0143,0.0159,0.0172,0.0179,0.019,0.022,0.0232,0.0267,0.0268,0.0322,0.0298,0.032,0.03,0.0334,0.0212,0.0247,0.0249,0.0241,0.0233,0.0312,0.0312,0.0313,0.0314,0,0.0073,0.0086,0.01,0.0138,0.0157,0.0182,0.0199,0.0214,0.0226,0.0235,0.0268,0.0292,0.0342,0.0342,0.0395,0.0383,0.0313,0.0357,0.035,0.0235,0.0262,0.026,0.025,0.0322,0.032,0.032,0.0319,0,0.0063,0.0075,0.0103,0.0134,0.0168,0.0201,0.0209,0.0231,0.0247,0.0273,0.0289,0.0323,0.0338,0.0381,0.0409,0.0432,0.0396,0.0366,0.0357,0.0348,0.0307,0.0345,0.0457,0,0,0,0,0,0.005,0.0069,0.0099,0.014,0.0177,0.0198,0.0229,0.0235,0.0252,0.0276,0.0281,0.032,0.037,0.039,0.042,0.0435,0.0403,0.0471,0.0364,0.0365,0.0356,0.0301,0,0,0,0,0,0,0.0044,0.0068,0.0093,0.0142,0.0173,0.0211,0.0234,0.0245,0.0258,0.0274,0.0299,0.0316,0.0363,0.0345,0.0413,0.0424,0.0358,0.0494,0.0495,0.0371,0.0362,0.0355,0.0295,0,0,0,0,0]},{"header":{"parameterUnit":"m.s-1","parameterCategory":2,"la1":30.2991,"la2":30.254,"lo1":-89.0895,"lo2":-89.0444,"dy":0.0017,"dx":0.0017,"nx":28,"ny":28,"refTime":"2024-07-14T03:00:00:Z","depth":"4","parameterNumber":3,"parameterNumberName":"V-component_of_CURRENTS"},"data":[0,0,0,0,0,0,0,0,0,0,0,0,0,0,0,0,0,0,0,0,0,0,0,0,0,0,0,0,0,0,0,0,0,0,0,0,0,0,0,0,0,0,0,0,0,0,0,0,0,0,0,0,0,0,0,0,0,0,-0.0328,-0.0329,0,-0.0374,-0.0375,-0.0376,-0.0417,-0.0418,-0.0418,-0.0419,-0.0487,-0.0488,-0.0489,0,0,0,0,0,0,0,0,0,0,0,0,0,-0.0282,-0.0283,-0.0328,-0.0329,-0.0329,-0.0374,-0.0375,-0.0376,-0.0417,-0.0418,-0.0419,-0.0419,-0.0486,-0.0488,-0.0489,0,0,0,0,0,0,0,0,0,0,0,0,0,-0.0313,-0.0283,-0.0328,-0.0356,-0.0358,-0.0374,-0.0375,-0.0376,-0.0417,-0.0418,-0.0419,-0.0419,-0.0486,-0.0488,-0.049,-0.0488,0,0,-0.0496,-0.0497,0,0,0,0,0,0,0,0,-0.0311,-0.0315,-0.0351,-0.0354,-0.0357,-0.0391,-0.0384,-0.0414,-0.0417,-0.0395,-0.0419,-0.042,-0.0456,-0.046,-0.0467,-0.0491,-0.0494,-0.0496,-0.0497,-0.0498,-0.0499,0,0,0,0,0,0,0,-0.0309,-0.0313,-0.0347,-0.0351,-0.0355,-0.0367,-0.0373,-0.039,-0.0421,-0.0397,-0.04,-0.0405,-0.0458,-0.0465,-0.0469,-0.0495,-0.0496,-0.0498,-0.0499,-0.05,-0.0587,-0.0588,0,0,0,0,0,0,-0.0302,-0.0311,-0.0345,-0.0348,-0.0335,-0.0368,-0.0373,-0.0379,-0.0421,-0.0428,-0.0404,-0.0406,-0.0462,-0.0467,-0.0472,-0.0542,-0.0498,-0.05,-0.0501,-0.0586,-0.0587,-0.0588,0,0,0,0,0,0,-0.0301,-0.0304,-0.0344,-0.033,-0.0336,-0.0368,-0.0374,-0.038,-0.0404,-0.0426,-0.0433,-0.0424,-0.0462,-0.0469,-0.051,-0.0542,-0.0501,-0.0503,-0.0584,-0.0586,-0.0588,-0.0637,0,0,0,0,0,0,-0.0299,-0.0304,-0.0312,-0.033,-0.0337,-0.0359,-0.0373,-0.038,-0.0404,-0.0408,-0.0445,-0.0451,-0.0463,-0.0507,-0.0512,-0.0544,-0.0504,-0.0583,-0.0585,-0.0587,-0.0634,-0.064,-0.0645,0,0,0,0,0,-0.0297,-0.03,-0.0312,-0.0317,-0.0345,-0.0359,-0.0363,-0.0388,-0.0404,-0.0413,-0.0448,-0.0451,-0.0523,-0.0509,-0.0515,-0.0549,-0.0582,-0.0585,-0.0587,-0.0631,-0.0638,-0.0645,0,0,0,0,0,0,-0.0289,-0.0305,-0.0319,-0.0329,-0.0347,-0.0366,-0.0378,-0.0395,-0.0428,-0.044,-0.0464,-0.0473,-0.0522,-0.0523,-0.0507,-0.0579,-0.0553,-0.0557,-0.0585,-0.0592,-0.0597,-0.0581,-0.0506,0,0,0,0,0,-0.0289,-0.0299,-0.0315,-0.0328,-0.0335,-0.036,-0.0372,-0.0389,-0.0416,-0.0432,-0.0464,-0.0497,-0.0532,-0.0553,-0.0578,-0.0613,-0.0595,-0.0638,-0.0644,-0.0648,-0.0639,-0.0653,-0.0659,-0.0596,-0.0596,-0.0596,0,0,-0.0293,-0.0302,-0.031,-0.0328,-0.0345,-0.0357,-0.037,-0.039,-0.041,-0.0434,-0.0482,-0.0518,-0.0546,-0.0594,-0.0615,-0.0602,-0.0654,-0.0652,-0.0656,-0.0643,-0.0656,-0.0662,-0.0668,-0.0598,-0.0598,-0.0597,0,0,-0.0294,-0.031,-0.0315,-0.0327,-0.0349,-0.0364,-0.0372,-0.0403,-0.0426,-0.047,-0.0501,-0.0551,-0.0601,-0.0631,-0.0651,-0.0697,-0.0684,-0.0716,-0.0735,-0.075,-0.0755,-0.0759,-0.073,-0.0731,-0.0719,-0.072,-0.072,0,-0.0297,-0.0305,-0.0319,-0.0325,-0.034,-0.0368,-0.038,-0.0403,-0.0449,-0.0472,-0.049,-0.0583,-0.0613,-0.0669,-0.07,-0.0709,-0.0704,-0.071,-0.0757,-0.0761,-0.0764,-0.0733,-0.0734,-0.0722,-0.0722,-0.0722,-0.0721,0,-0.0296,-0.0309,-0.0313,-0.0333,-0.035,-0.0365,-0.0394,-0.0422,-0.0461,-0.0493,-0.0561,-0.061,-0.0665,-0.0694,-0.0719,-0.0771,-0.0754,-0.0763,-0.0738,-0.0773,-0.0738,-0.0738,-0.0726,-0.0725,-0.0724,-0.0724,0,0,-0.0286,-0.0307,-0.0311,-0.0322,-0.0356,-0.0368,-0.0402,-0.0439,-0.0463,-0.0527,-0.0565,-0.0654,-0.0693,-0.0717,-0.0759,-0.0784,-0.0813,-0.0796,-0.0796,-0.0762,-0.0822,-0.0768,-0.0762,-0.0845,-0.0845,-0.0846,-0.0782,0,-0.0283,-0.0292,-0.031,-0.0333,-0.0341,-0.0375,-0.0402,-0.0444,-0.0487,-0.0531,-0.0592,-0.0652,-0.0697,-0.074,-0.0775,-0.081,-0.0818,-0.0827,-0.0796,-0.0793,-0.0739,-0.0763,-0.0848,-0.0782,-0.0782,-0.0782,-0.0782,0,-0.0274,-0.0282,-0.03,-0.0329,-0.0337,-0.0365,-0.0412,-0.044,-0.0499,-0.0534,-0.0602,-0.0649,-0.0718,-0.0742,-0.0797,-0.0808,-0.0818,-0.0829,-0.0827,-0.0757,-0.074,-0.0743,-0.0781,-0.0781,-0.0781,-0.0781,-0.0781,0,-0.0253,-0.0276,-0.0293,-0.0303,-0.0341,-0.0368,-0.0401,-0.0455,-0.0473,-0.0547,-0.0566,-0.065,-0.0686,-0.0732,-0.0767,-0.0797,-0.0788,-0.0823,-0.0765,-0.0759,-0.0803,-0.08,-0.0834,-0.0834,-0.0834,-0.0834,-0.0834,0,-0.0238,-0.0251,-0.029,-0.0298,-0.0326,-0.0365,-0.0401,-0.0437,-0.0481,-0.0493,-0.0579,-0.0586,-0.0692,-0.0703,-0.0744,-0.0739,-0.0765,-0.0758,-0.0747,-0.0823,-0.0822,-0.0801,-0.0799,-0.0832,-0.0832,-0.0833,-0.0833,0,-0.0217,-0.0238,-0.0254,-0.0297,-0.0317,-0.0344,-0.0394,-0.0407,-0.0456,-0.0467,-0.0491,-0.0544,-0.0566,-0.0618,-0.0662,-0.0686,-0.0696,-0.0676,-0.0709,-0.0702,-0.0662,-0.0662,-0.0627,-0.0625,-0.0623,-0.0621,-0.062,0,-0.021,-0.0216,-0.0251,-0.0264,-0.0294,-0.0335,-0.0354,-0.0402,-0.0403,-0.0422,-0.0411,-0.044,-0.0474,-0.0468,-0.0546,-0.0584,-0.0597,-0.0594,-0.0684,-0.0652,-0.0644,-0.0648,-0.0651,-0.0617,-0.0617,-0.0616,-0.0616,0,-0.0197,-0.0211,-0.0222,-0.0243,-0.0271,-0.0286,-0.0317,-0.0309,-0.0337,-0.0362,-0.0332,-0.0362,-0.0362,-0.0422,-0.0437,-0.0475,-0.0609,-0.0575,-0.0581,-0.0665,-0.0639,-0.0634,-0.064,-0.0609,-0.061,-0.061,-0.0611,0,-0.0194,-0.0194,-0.0207,-0.0226,-0.0244,-0.0247,-0.0265,-0.0259,-0.0263,-0.0275,-0.0248,-0.0283,-0.0313,-0.0357,-0.0371,-0.0407,-0.0447,-0.0484,-0.0495,-0.0504,-0.0506,-0.0457,-0.0353,0,0,0,0,0,-0.0193,-0.0188,-0.0192,-0.0205,-0.0213,-0.0229,-0.0237,-0.0246,-0.0252,-0.0214,-0.0235,-0.0231,-0.0273,-0.0294,-0.0319,-0.0364,-0.0467,-0.0396,-0.0519,-0.0572,-0.058,-0.0602,0,0,0,0,0,0,-0.0194,-0.0194,-0.0183,-0.0181,-0.0187,-0.0195,-0.0202,-0.0207,-0.0186,-0.0193,-0.0206,-0.023,-0.0268,-0.0248,-0.0313,-0.0327,-0.0408,-0.0422,-0.0423,-0.0568,-0.0575,-0.0581,-0.0606,0,0,0,0,0]}]]